Location: Tambov
(52.7163°N, 41.4075°E)
Time: 21:14:10
(UTC+03:00)

Envisat - Pass Details

Date: 14 March 2021
Orbit: 764 x 766 km, 98.1° (Epoch: 17 April)

Event Time Altitude Azimuth Distance (km) Brightness Sun altitude
Rises 04:28:04 0° 27° (NNE) 3,246 7.0 -19.1°
Reaches altitude 10° 04:31:28 10° 51° (NE) 2,312 6.6 -18.6°
Maximum altitude 04:34:17 15° 85° (E) 1,993 6.2 -18.2°
Drops below altitude 10° 04:37:06 10° 119° (ESE) 2,302 6.0 -17.8°
Sets 04:40:27 0° 143° (SE) 3,221 6.5 -17.3°
